Wind_Speed
91 93 96 99 95 94 91 88 88 88 89 88 92 92 90 95 94 93 85 81 79 75 76 74 75 68 68 65 65 52 44 42 50 55 50 59 48 42 54 43 42 46 45
96 98 100 100 96 94 93 93 91 92 94 94 92 93 96 93 99 99 92 86 83 79 78 75 75 77 74 72 69 69 65 62 61 53 50 62 60 49 54 43 44 48 51
100 100 99 98 95 94 94 93 91 90 91 91 87 88 91 93 99 104 102 94 88 83 79 77 78 77 76 77 79 79 79 80 85 85 76 61 63 64 64 60 59 57 59
101 101 101 99 96 95 92 87 84 81 81 82 82 83 88 91 96 105 105 101 94 90 87 80 77 77 77 77 77 76 77 79 80 85 87 87 85 71 72 70 73 68 65
105 105 104 93 88 82 80 73 71 67 70 71 74 78 83 91 92 103 110 104 104 98 91 85 81 79 77 78 80 79 77 77 77 78 83 83 87 88 84 81 81 77 73
103 98 96 87 80 72 68 63 62 62 61 63 67 71 75 80 92 93 105 112 106 99 94 91 87 84 83 80 80 81 79 78 77 77 78 80 78 79 84 83 84 81 78
101 91 85 78 71 63 58 55 54 54 55 58 61 69 70 75 85 92 97 105 109 106 100 94 91 90 89 85 84 81 81 81 79 78 79 79 78 78 78 78 78 79 79
93 84 74 71 64 57 49 49 46 43 48 52 58 61 67 71 76 85 91 95 102 108 103 99 97 94 91 88 88 85 83 86 85 85 85 81 80 82 80 79 79 76 75
83 75 67 63 57 52 49 44 39 39 41 46 53 57 60 66 74 82 84 89 92 96 101 101 99 100 98 93 91 92 91 89 93 92 88 85 84 85 84 83 82 80 73
74 65 60 54 53 50 51 47 42 41 47 47 50 53 59 64 71 75 79 83 86 89 93 98 101 98 96 96 96 97 98 96 96 98 98 90 89 89 88 88 79 77 75
65 59 52 50 50 50 50 50 43 38 37 41 46 47 56 62 63 65 66 71 77 81 86 93 96 99 101 98 94 95 97 97 97 97 93 94 89 87 88 81 73 73 75
59 53 49 49 50 49 49 49 44 40 39 43 46 48 52 52 52 56 59 59 60 66 76 84 89 90 92 89 90 95 96 93 92 92 89 87 84 83 78 75 69 67 68
50 48 48 54 53 51 52 53 49 43 41 42 43 45 46 46 46 48 51 57 58 62 63 65 69 73 74 77 79 83 85 87 85 83 82 80 82 77 72 65 64 62 60
48 46 49 53 58 56 53 49 52 43 48 50 47 48 46 48 47 51 51 57 62 62 63 60 59 61 63 65 68 71 73 76 77 78 76 74 72 66 64 62 55 48 40
46 48 49 51 61 60 60 49 50 48 56 58 57 52 48 53 53 55 58 59 56 57 59 61 59 61 62 65 69 70 71 72 71 71 70 66 62 60 56 52 42 41 41
46 48 49 51 56 58 59 57 52 57 61 61 59 56 50 53 58 62 58 59 59 61 61 66 68 67 69 71 69 69 71 72 73 71 67 63 60 52 50 43 40 39 36
46 45 46 49 52 56 60 57 60 59 60 58 57 56 59 59 55 57 62 67 67 65 62 67 71 72 71 73 75 76 75 73 72 67 64 63 53 49 47 45 42 35 37
40 40 43 46 49 56 59 59 60 61 65 65 62 62 64 63 63 63 61 65 66 67 63 65 70 72 72 71 73 76 77 75 69 67 59 55 48 48 52 45 45 35 38
38 39 40 41 45 48 51 56 59 63 63 61 68 67 62 57 54 55 57 62 62 61 62 65 67 69 72 75 72 72 70 71 69 63 53 48 51 49 50 45 45 39 45
36 37 38 41 42 44 45 46 49 52 54 54 53 53 54 55 54 53 50 49 51 53 55 57 60 65 69 71 70 68 70 69 69 54 51 54 59 54 50 54 44 40 50
39 41 44 46 47 47 48 49 50 52 52 53 54 56 57 56 55 53 50 48 49 51 53 54 56 58 59 60 61 61 61 62 56 53 57 61 66 62 61 58 55 55 57
42 43 42 42 42 42 42 42 43 44 44 47 47 47 47 47 47 47 47 47 48 49 51 52 55 57 58 58 59 61 58 60 53 55 63 64 65 69 67 69 61 58 58
40 40 37 36 36 35 35 36 37 36 36 36 37 37 37 39 40 40 40 41 42 43 44 47 50 53 55 59 60 58 58 51 51 61 67 65 68 69 69 68 65 61 61
34 33 33 33 33 33 33 33 33 33 33 32 33 33 34 36 37 37 37 37 38 38 39 40 41 43 45 47 51 53 54 53 54 64 70 69 70 73 69 70 73 73 71
30 30 31 30 29 28 28 29 29 29 30 30 30 31 32 33 34 34 35 36 37 38 38 39 40 41 42 44 46 50 53 56 57 67 72 73 77 78 75 76 76 82 75
27 27 27 26 23 24 25 25 25 26 28 28 28 28 29 31 33 34 36 37 38 40 40 41 42 43 43 45 48 51 56 62 67 75 79 80 83 87 82 79 80 82 78
Wind_Direction
284 284 286 288 288 286 283 280 277 273 269 260 259 260 257 251 249 249 250 248 246 247 245 245 248 245 246 249 248 248 250 246 248 248 272 265 260 260 264 265 274 268 264
284 285 286 287 287 286 283 280 276 273 269 265 259 254 253 248 247 248 244 247 248 247 247 243 245 249 245 243 243 243 243 242 249 246 242 259 251 251 252 248 255 257 254
286 287 289 289 288 286 282 278 275 270 267 264 259 254 249 247 244 243 243 243 245 246 246 247 247 247 248 249 250 249 250 251 255 256 248 250 252 249 252 251 255 258 256
290 291 291 289 289 286 281 276 272 268 264 260 256 252 248 244 242 242 242 241 243 246 245 246 248 249 249 251 252 253 249 249 247 247 245 250 250 248 250 253 253 255 256
290 291 291 291 286 282 278 275 269 264 261 257 253 249 245 242 241 241 241 240 242 243 246 247 247 250 252 254 255 256 256 253 252 250 249 253 249 252 253 254 259 261 259
291 291 292 291 288 283 278 272 266 262 257 256 253 248 247 243 240 241 242 242 241 243 244 247 249 250 252 253 256 258 258 259 258 256 255 256 258 256 253 255 256 259 259
293 294 294 290 284 281 275 268 265 261 257 251 248 246 247 243 242 240 241 242 244 244 243 245 248 249 250 253 254 256 258 259 260 262 263 262 263 263 265 262 259 256 256
295 295 291 286 283 279 270 267 265 258 253 251 247 243 242 244 245 243 242 243 245 245 245 245 246 248 250 252 254 254 258 260 262 265 266 268 268 266 264 266 265 262 259
294 292 287 285 281 274 269 258 252 252 245 247 241 241 239 240 242 244 243 243 243 244 246 246 247 247 250 255 255 254 257 261 262 264 268 270 272 271 269 271 268 262 261
291 286 283 280 275 273 272 258 243 239 234 242 243 241 242 241 243 244 244 245 246 245 246 247 248 250 248 249 252 253 256 259 263 266 266 269 272 271 272 275 273 270 267
286 284 275 270 269 269 267 261 250 239 235 236 235 238 244 245 248 249 245 244 245 245 245 247 248 250 253 254 255 256 255 258 260 264 267 267 268 268 270 274 274 271 268
284 278 270 265 258 263 257 262 248 237 234 245 243 237 246 248 248 248 245 244 243 243 244 246 248 249 252 254 254 255 256 258 259 263 264 263 266 269 271 274 271 268 266
276 272 266 266 258 249 252 253 249 234 233 243 246 245 250 249 246 245 247 244 242 242 245 249 250 249 250 252 253 254 256 257 260 261 262 264 266 270 271 272 270 268 266
271 266 262 259 257 252 253 248 243 241 250 253 240 244 248 247 243 240 242 247 247 246 244 247 247 248 248 250 251 252 255 257 258 260 262 264 266 267 267 266 262 252 250
267 265 262 254 256 255 254 246 248 237 243 245 254 255 251 246 242 245 246 246 247 249 250 248 249 249 250 250 254 256 259 259 260 261 264 265 264 263 259 252 244 246 247
270 267 265 261 260 259 260 256 242 242 247 252 259 260 258 254 253 250 254 257 257 255 253 250 249 249 250 253 256 259 258 258 260 263 265 266 262 257 245 239 239 245 248
274 269 265 263 263 262 260 261 259 254 255 259 263 266 267 268 263 255 252 255 257 256 257 253 251 254 254 255 255 260 259 260 263 264 260 262 253 239 234 234 238 238 242
274 272 269 267 265 261 261 262 263 264 264 265 268 273 274 270 268 263 258 249 248 249 252 251 253 255 254 254 255 258 259 261 260 258 258 252 234 224 227 224 229 229 234
274 270 269 267 264 264 261 261 263 264 266 269 266 268 275 271 267 264 261 256 254 251 250 249 249 251 252 254 255 255 255 254 256 257 248 235 214 213 220 217 222 223 230
271 268 267 265 264 263 263 262 261 261 261 261 262 261 263 263 263 263 263 261 258 254 253 252 251 251 251 251 252 252 251 254 255 248 234 219 207 214 219 214 216 224 238
270 269 269 268 267 266 265 263 262 261 260 260 259 259 260 262 262 261 258 256 254 251 249 248 248 248 250 251 251 251 249 246 244 233 219 214 213 218 222 218 217 223 232
269 272 273 273 271 269 268 266 264 262 260 258 258 259 259 261 263 262 260 257 255 253 251 250 249 249 249 248 247 246 245 242 237 223 213 217 219 219 226 229 230 231 235
280 281 278 275 274 272 270 268 266 266 264 262 262 262 261 261 262 263 262 260 258 258 256 255 254 253 251 250 249 249 248 245 232 224 214 219 219 219 226 222 223 230 234
282 281 280 279 277 275 274 274 272 270 268 265 263 261 259 259 259 260 260 260 260 258 257 255 254 253 251 249 246 245 241 240 233 223 221 220 220 219 226 224 226 230 230
281 280 278 278 277 277 274 271 269 266 263 260 256 255 254 255 256 257 258 260 262 261 261 260 258 254 251 249 242 240 235 225 223 222 222 222 221 219 224 225 226 229 231
278 280 281 278 276 271 268 266 264 261 258 257 255 254 254 255 256 257 258 259 261 262 263 262 261 257 252 248 243 240 236 230 227 221 221 223 223 220 222 223 226 230 227
Height
10594 10587 10582 10577 10573 10570 10568 10570 10569 10568 10569 10573 10573 10574 10578 10581 10587 10593 10598 10604 10612 10621 10628 10634 10637 10643 10647 10651 10656 10660 10663 10666 10661 10668 10670 10667 10669 10667 10669 10672 10668 10669 10668
10567 10563 10559 10555 10548 10543 10539 10536 10538 10537 10536 10535 10540 10546 10549 10555 10565 10570 10574 10581 10588 10597 10605 10612 10618 10622 10628 10632 10637 10642 10648 10650 10649 10653 10649 10652 10657 10655 10656 10660 10653 10656 10655
10541 10536 10533 10529 10521 10514 10507 10503 10503 10504 10502 10501 10507 10514 10521 10530 10539 10545 10551 10557 10564 10573 10582 10590 10597 10602 10608 10611 10617 10621 10627 10628 10632 10634 10638 10639 10640 10637 10640 10642 10640 10641 10642
10511 10509 10505 10501 10494 10481 10474 10472 10470 10472 10472 10472 10478 10486 10493 10505 10509 10518 10528 10534 10540 10549 10559 10569 10575 10581 10587 10590 10594 10599 10604 10607 10610 10612 10615 10621 10621 10622 10624 10623 10624 10625 10628
10486 10481 10475 10472 10464 10456 10447 10446 10444 10447 10446 10449 10454 10460 10464 10472 10486 10491 10501 10512 10518 10526 10537 10545 10554 10560 10566 10571 10574 10577 10582 10587 10590 10592 10595 10596 10600 10604 10608 10609 10608 10607 10609
10464 10461 10447 10442 10433 10429 10424 10423 10423 10424 10428 10432 10436 10439 10444 10454 10462 10469 10479 10490 10498 10506 10516 10523 10532 10539 10546 10551 10555 10558 10561 10565 10569 10571 10573 10576 10578 10584 10586 10588 10590 10591 10591
10438 10435 10425 10417 10412 10408 10404 10403 10405 10407 10409 10414 10418 10421 10429 10433 10437 10448 10456 10466 10476 10486 10497 10505 10511 10517 10524 10531 10536 10540 10543 10546 10550 10551 10552 10556 10559 10561 10562 10564 10568 10570 10572
10414 10408 10403 10396 10391 10389 10389 10387 10389 10391 10395 10399 10402 10406 10411 10417 10423 10429 10436 10446 10454 10462 10473 10485 10492 10498 10503 10510 10516 10522 10525 10527 10530 10532 10534 10536 10538 10540 10542 10544 10544 10548 10550
10389 10385 10381 10378 10377 10375 10374 10375 10376 10379 10383 10386 10387 10391 10396 10400 10403 10408 10417 10423 10433 10443 10453 10463 10472 10478 10485 10493 10497 10500 10503 10508 10510 10511 10515 10517 10517 10517 10518 10521 10524 10523 10530
10368 10367 10364 10364 10364 10361 10363 10364 10364 10367 10370 10373 10376 10380 10383 10386 10389 10394 10403 10409 10417 10425 10433 10442 10449 10458 10465 10471 10479 10481 10482 10486 10488 10492 10493 10498 10496 10497 10496 10497 10500 10503 10504
10351 10351 10349 10350 10350 10351 10352 10352 10350 10355 10358 10361 10364 10369 10371 10373 10378 10382 10388 10391 10398 10407 10414 10418 10427 10436 10442 10451 10458 10462 10464 10468 10471 10471 10475 10477 10476 10476 10475 10477 10479 10479 10475
10336 10335 10335 10336 10337 10338 10341 10341 10341 10342 10348 10354 10354 10356 10359 10364 10366 10369 10373 10376 10381 10387 10392 10399 10407 10415 10421 10428 10432 10437 10442 10445 10448 10451 10453 10455 10454 10456 10458 10458 10458 10457 10455
10321 10321 10322 10322 10322 10325 10328 10329 10329 10330 10335 10342 10343 10346 10349 10351 10352 10356 10360 10363 10366 10371 10377 10382 10389 10395 10401 10406 10411 10416 10419 10424 10427 10429 10433 10434 10434 10437 10439 10440 10440 10438 10436
10306 10307 10308 10309 10308 10309 10312 10316 10317 10317 10321 10325 10330 10335 10336 10339 10340 10343 10346 10349 10353 10358 10362 10367 10373 10378 10383 10386 10391 10396 10399 10401 10405 10408 10412 10415 10415 10420 10421 10423 10424 10423 10424
10293 10292 10293 10294 10295 10297 10299 10300 10304 10305 10308 10312 10317 10320 10323 10325 10327 10331 10334 10336 10340 10344 10349 10353 10358 10362 10366 10370 10372 10376 10379 10382 10385 10388 10392 10396 10398 10401 10404 10406 10407 10410 10414
10280 10280 10280 10282 10283 10286 10289 10291 10291 10294 10297 10300 10302 10306 10309 10313 10314 10318 10323 10326 10328 10331 10333 10339 10342 10346 10349 10352 10354 10357 10361 10364 10365 10370 10374 10377 10381 10385 10388 10392 10395 10400 10404
10266 10266 10268 10270 10272 10274 10275 10278 10280 10282 10285 10287 10288 10291 10294 10297 10298 10303 10305 10310 10311 10314 10318 10322 10326 10328 10331 10335 10337 10339 10341 10345 10348 10351 10356 10359 10364 10369 10375 10380 10384 10388 10390
10256 10256 10257 10258 10260 10261 10262 10265 10268 10270 10272 10274 10275 10275 10277 10278 10279 10281 10284 10285 10289 10293 10298 10301 10305 10308 10311 10315 10319 10321 10323 10326 10329 10332 10338 10343 10349 10355 10361 10368 10372 10375 10377
10247 10247 10247 10248 10247 10247 10248 10251 10253 10255 10257 10259 10260 10259 10260 10262 10262 10262 10264 10268 10271 10276 10279 10281 10284 10286 10290 10294 10298 10301 10303 10305 10309 10315 10320 10327 10336 10342 10349 10356 10358 10362 10365
10239 10239 10238 10237 10237 10236 10236 10236 10238 10239 10240 10243 10244 10244 10245 10246 10247 10247 10249 10251 10254 10256 10259 10263 10266 10268 10269 10272 10276 10279 10283 10288 10291 10298 10304 10313 10322 10329 10336 10341 10344 10350 10353
10230 10229 10228 10227 10226 10225 10224 10224 10225 10226 10227 10229 10230 10230 10231 10232 10233 10235 10238 10239 10241 10243 10244 10247 10248 10250 10252 10254 10256 10259 10263 10266 10273 10280 10286 10297 10306 10314 10321 10326 10330 10333 10337
10220 10219 10217 10215 10212 10211 10211 10211 10211 10212 10214 10214 10215 10216 10218 10218 10219 10220 10222 10224 10226 10228 10229 10230 10232 10234 10235 10237 10238 10241 10245 10249 10258 10263 10270 10280 10290 10297 10303 10309 10314 10319 10324
10208 10205 10203 10201 10200 10199 10199 10198 10198 10199 10201 10202 10203 10205 10206 10206 10206 10208 10210 10211 10212 10213 10214 10215 10215 10216 10218 10221 10223 10227 10231 10239 10245 10250 10255 10262 10271 10280 10287 10293 10298 10304 10308
10197 10194 10192 10191 10189 10188 10188 10188 10188 10188 10189 10190 10192 10193 10195 10196 10197 10198 10199 10200 10200 10201 10200 10200 10201 10202 10203 10206 10209 10212 10217 10224 10230 10235 10240 10247 10255 10263 10269 10275 10280 10285 10289
10188 10186 10184 10182 10182 10181 10179 10179 10179 10180 10181 10182 10183 10184 10185 10186 10186 10187 10188 10188 10188 10188 10189 10189 10189 10190 10190 10191 10194 10197 10201 10205 10211 10218 10223 10228 10234 10241 10248 10255 10259 10264 10270
10180 10178 10176 10175 10175 10174 10173 10174 10173 10174 10174 10174 10175 10175 10175 10176 10176 10177 10177 10177 10176 10177 10177 10177 10177 10177 10178 10179 10180 10182 10185 10188 10191 10194 10199 10205 10213 10219 10226 10232 10238 10243 10248